sat.trackr.live / text

‹ back to catalog

STARLINK-31500

NORAD 59305 · 2024-056K

PAYLOAD ACTIVE UNKNOWN

§ Identity

Operator
Country
US
Launch date
2024-03-24
Launch site
AFETR
Launch vehicle
Mass (kg)
RCS (m²)

Purposes: comms

External: N2YO · Heavens-Above · Gunter

§ Orbital elements

Epoch: 2026-09-20T05:08:51.584352Z

Period
94.27 min
Inclination
42.9998°
Eccentricity
0.0001017
Mean motion
15.27579827 rev/d
Perigee alt
482.4 km
Apogee alt
483.7 km
Semi-major
6,861.2 km
B*
3.0661e-5
RAAN
212.1957°
Arg perigee
267.5828°
Mean anomaly
92.4907°
Rev number
14,090

§ Raw data

STARLINK-315001 59305U 24056K   26263.21448593  .00000582  00000+0  30661-4 0  99982 59305  42.9998 212.1957 0001017 267.5828  92.4907 15.27579827140907

JSON: /api/v1/satellites/59305 · /tle

For live sub-satellite position, see the globe view (requires WebGL).

§ Visibility from observer

Set your observer location to see the next 7 days of passes ≥ 10°. The values pass through the URL so the page stays shareable.

No JS? Fill the form by hand. The geolocation button needs JavaScript.